| time (UTC) | temp F | wind direction | speed knots | gust knots | rain 1hr in | rain 24hr in | rain mn in | humidity % | barometer mb |
| 20260504044543 | 46 | 0 | 0.0 | 0.9 | 0.00 | 0.00 | 0.00 | 57 | 1014.0 |
| 20260504043039 | 46 | 0 | 0.0 | 0.9 | 0.00 | 0.00 | 0.00 | 55 | 1013.9 |
| 20260504041537 | 46 | 0 | 0.0 | 0.9 | 0.00 | 0.00 | 0.00 | 55 | 1013.9 |
| 20260504040054 | 46 | 131 | 0.0 | 0.9 | 0.00 | 0.00 | 0.00 | 56 | 1013.9 |
| 20260504034541 | 46 | 0 | 0.0 | 0.9 | 0.00 | 0.00 | 0.00 | 56 | 1013.7 |
| 20260504033038 | 46 | 0 | 0.0 | 0.9 | 0.00 | 0.00 | 0.00 | 56 | 1013.9 |
| 20260504031537 | 46 | 0 | 0.0 | 0.9 | 0.00 | 0.00 | 0.00 | 56 | 1013.8 |
| 20260504030042 | 45 | 132 | 0.0 | 0.9 | 0.00 | 0.00 | 0.00 | 58 | 1013.8 |
| 20260504024538 | 45 | 0 | 0.0 | 0.0 | 0.00 | 0.00 | 0.00 | 60 | 1013.9 |
| 20260504023040 | 46 | 0 | 0.0 | 0.0 | 0.00 | 0.00 | 0.00 | 57 | 1014.0 |
| 20260504021538 | 48 | 0 | 0.0 | 0.0 | 0.00 | 0.00 | 0.00 | 53 | 1013.9 |
| 20260504020037 | 49 | 0 | 0.0 | 0.9 | 0.00 | 0.00 | 0.00 | 51 | 1013.9 |
| 20260504014536 | 49 | 0 | 0.0 | 0.9 | 0.00 | 0.00 | 0.00 | 52 | 1013.8 |
| 20260504013047 | 49 | 0 | 0.0 | 0.9 | 0.00 | 0.00 | 0.00 | 51 | 1013.8 |
| 20260504011539 | 50 | 0 | 0.0 | 0.0 | 0.00 | 0.00 | 0.00 | 50 | 1013.6 |
| 20260504010035 | 51 | 0 | 0.0 | 0.9 | 0.00 | 0.00 | 0.00 | 47 | 1013.6 |
| 20260504004537 | 52 | 0 | 0.0 | 0.9 | 0.00 | 0.00 | 0.00 | 45 | 1013.6 |
| 20260504003037 | 53 | 0 | 0.0 | 0.9 | 0.00 | 0.00 | 0.00 | 43 | 1013.3 |
| 20260504001535 | 54 | 139 | 0.0 | 1.7 | 0.00 | 0.00 | 0.00 | 41 | 1013.3 |
| 20260504000040 | 54 | 0 | 0.0 | 2.6 | 0.00 | 0.00 | 0.00 | 39 | 1013.2 |
| 20260503234540 | 55 | 164 | 0.9 | 3.5 | 0.00 | 0.00 | 0.00 | 38 | 1013.2 |
| 20260503233038 | 56 | 34 | 0.9 | 6.1 | 0.00 | 0.00 | 0.00 | 37 | 1013.1 |
| 20260503231537 | 57 | 121 | 0.9 | 4.3 | 0.00 | 0.00 | 0.00 | 36 | 1013.1 |
| 20260503230037 | 58 | 346 | 0.0 | 6.1 | 0.00 | 0.00 | 0.00 | 37 | 1013.0 |
| 20260503224540 | 57 | 290 | 0.9 | 4.3 | 0.00 | 0.00 | 0.00 | 36 | 1013.0 |
| 20260503223041 | 57 | 316 | 1.7 | 9.6 | 0.00 | 0.00 | 0.00 | 37 | 1013.1 |
| 20260503221543 | 57 | 200 | 1.7 | 5.2 | 0.00 | 0.00 | 0.00 | 35 | 1013.0 |
| 20260503220040 | 57 | 291 | 2.6 | 7.0 | 0.00 | 0.00 | 0.00 | 35 | 1013.2 |
| 20260503214537 | 58 | 89 | 0.9 | 7.8 | 0.00 | 0.00 | 0.00 | 35 | 1013.1 |
| 20260503213043 | 57 | 162 | 2.6 | 7.8 | 0.00 | 0.00 | 0.00 | 35 | 1013.1 |
| 20260503211537 | 57 | 76 | 1.7 | 9.6 | 0.00 | 0.00 | 0.00 | 36 | 1013.0 |
| 20260503210039 | 57 | 320 | 3.5 | 10.4 | 0.00 | 0.00 | 0.00 | 35 | 1013.0 |
| 20260503204544 | 56 | 228 | 2.6 | 10.4 | 0.00 | 0.00 | 0.00 | 35 | 1013.1 |
| 20260503203035 | 57 | 204 | 2.6 | 9.6 | 0.00 | 0.00 | 0.00 | 35 | 1013.2 |
| 20260503201535 | 57 | 225 | 2.6 | 7.0 | 0.00 | 0.00 | 0.00 | 35 | 1013.4 |
| 20260503200036 | 57 | 288 | 2.6 | 9.6 | 0.00 | 0.00 | 0.00 | 35 | 1013.5 |
| 20260503194538 | 57 | 256 | 3.5 | 8.7 | 0.00 | 0.00 | 0.00 | 34 | 1013.6 |
| 20260503193039 | 57 | 295 | 2.6 | 7.8 | 0.00 | 0.00 | 0.00 | 36 | 1013.6 |
| 20260503191538 | 56 | 13 | 1.7 | 11.3 | 0.00 | 0.00 | 0.00 | 37 | 1013.8 |
| 20260503190046 | 57 | 209 | 2.6 | 7.8 | 0.00 | 0.00 | 0.00 | 35 | 1014.1 |
| 20260503184535 | 56 | 32 | 3.5 | 7.8 | 0.00 | 0.00 | 0.00 | 37 | 1014.2 |
| 20260503183040 | 55 | 0 | 2.6 | 7.0 | 0.00 | 0.00 | 0.00 | 38 | 1014.3 |
| 20260503181539 | 55 | 268 | 1.7 | 10.4 | 0.00 | 0.00 | 0.00 | 37 | 1014.5 |
| 20260503180049 | 54 | 278 | 1.7 | 8.7 | 0.00 | 0.00 | 0.00 | 39 | 1014.5 |
| 20260503174538 | 53 | 20 | 2.6 | 7.0 | 0.00 | 0.00 | 0.00 | 37 | 1014.6 |
| 20260503173051 | 53 | 288 | 2.6 | 7.0 | 0.00 | 0.00 | 0.00 | 38 | 1014.7 |
| 20260503171543 | 55 | 226 | 2.6 | 7.8 | 0.00 | 0.00 | 0.00 | 37 | 1014.5 |
| 20260503081545 | 37 | 257 | 0.9 | 3.5 | 0.00 | 0.00 | 0.00 | 67 | 1014.6 |
| 20260503071542 | 38 | 0 | 0.9 | 4.3 | 0.00 | 0.00 | 0.00 | 65 | 1014.4 |
| 20260503054541 | 39 | 0 | 0.0 | 2.6 | 0.00 | 0.02 | 0.00 | 64 | 1014.4 |
| 20260503053037 | 39 | 0 | 0.0 | 1.7 | 0.00 | 0.02 | 0.00 | 64 | 1014.5 |
| 20260503051539 | 39 | 143 | 0.0 | 0.9 | 0.00 | 0.02 | 0.00 | 64 | 1014.6 |
| 20260503050041 | 40 | 0 | 0.0 | 0.9 | 0.00 | 0.02 | 0.00 | 62 | 1014.7 |